Location: Bailey Inglish Elementary School
(33.5826°N, 96.1780°W)
Time: 01:36:35
(UTC+00:00)

BlueWalker 3 - Pass Details

Date: 03 July 2024
Orbit: 480 x 491 km, 53.2° (Epoch: 20 July)

Event Time Altitude Azimuth Distance (km) Brightness Sun altitude
Rises 04:38:39 0° 326° (NW) 2,537 6.8 -27.7°
Reaches altitude 10° 04:41:04 10° 339° (NNW) 1,654 5.5 -27.9°
Enters shadow 04:43:09 22° 9° (N) 1,082 4.1 -28.1°
